GW0692 Weather Reports


Display with metric or nautical units.
time (UTC)temp
F
wind
direction
speed
MPH
gust
MPH
rain 1hr
in
rain 24hr
in
rain mn
in
humidity
%
barometer
mb
20260906003924 79 291 5.0 7.0 0.00 0.00 0.00 35 1024.0
20260906003419 79 228 4.0 10.0 0.00 0.00 0.00 34 1023.9
20260906002915 80 295 7.0 9.0 0.00 0.00 0.00 34 1023.9
20260906002414 80 249 5.0 7.0 0.00 0.00 0.00 34 1023.8
20260906001909 80 226 3.0 5.0 0.00 0.00 0.00 34 1023.8
20260906001405 80 236 6.0 7.0 0.00 0.00 0.00 34 1024.0
20260906000905 80 228 7.0 10.0 0.00 0.00 0.00 34 1023.6
20260906000403 80 229 2.0 3.0 0.00 0.00 0.00 33 1023.6
20260905235855 80 258 2.0 3.0 0.00 0.00 0.00 32 1023.6
20260905235349 80 300 5.0 7.0 0.00 0.00 0.00 33 1023.8
20260905234844 81 265 3.0 3.0 0.00 0.00 0.00 32 1023.5
20260905234339 82 305 2.0 5.0 0.00 0.00 0.00 32 1023.4
20260905233834 82 261 5.0 7.0 0.00 0.00 0.00 32 1023.5
20260905233329 83 285 5.0 5.0 0.00 0.00 0.00 31 1023.8
20260905232828 83 254 3.0 5.0 0.00 0.00 0.00 31 1023.4
20260905232325 82 271 6.0 7.0 0.00 0.00 0.00 32 1023.4
20260905231820 83 250 3.0 7.0 0.00 0.00 0.00 31 1023.6
20260905231315 83 259 6.0 9.0 0.00 0.00 0.00 31 1023.5
20260905230812 83 244 7.0 10.0 0.00 0.00 0.00 31 1023.4
20260905230309 84 260 3.0 3.0 0.00 0.00 0.00 30 1023.5
20260905225809 83 322 6.0 10.0 0.00 0.00 0.00 31 1023.5
20260905225306 83 316 6.0 9.0 0.00 0.00 0.00 31 1023.6
20260905224804 82 294 9.0 17.0 0.00 0.00 0.00 32 1023.6
20260905224300 82 261 7.0 12.0 0.00 0.00 0.00 32 1023.3
20260905223755 82 219 7.0 9.0 0.00 0.00 0.00 31 1023.5
20260905223252 83 242 10.0 14.0 0.00 0.00 0.00 31 1023.3
20260905222747 85 254 5.0 7.0 0.00 0.00 0.00 30 1023.5
20260905222246 85 254 5.0 7.0 0.00 0.00 0.00 30 1023.6
20260905221742 84 275 5.0 7.0 0.00 0.00 0.00 30 1023.4
20260905221239 85 316 6.0 10.0 0.00 0.00 0.00 30 1023.5
20260905220734 84 286 3.0 5.0 0.00 0.00 0.00 31 1023.9
20260905220230 84 286 3.0 5.0 0.00 0.00 0.00 31 1023.8
20260905215730 83 256 5.0 7.0 0.00 0.00 0.00 31 1023.6
20260905215226 84 294 2.0 3.0 0.00 0.00 0.00 32 1023.6
20260905214721 85 243 7.0 9.0 0.00 0.00 0.00 31 1023.8
20260905214217 85 246 3.0 3.0 0.00 0.00 0.00 31 1024.0
20260905213712 84 233 3.0 3.0 0.00 0.00 0.00 31 1024.0
20260905213208 84 191 4.0 5.0 0.00 0.00 0.00 31 1024.0
20260905212703 82 246 2.0 3.0 0.00 0.00 0.00 32 1024.1
20260905212202 82 257 5.0 9.0 0.00 0.00 0.00 33 1024.3
20260905211657 84 247 5.0 7.0 0.00 0.00 0.00 32 1023.9
20260905211152 85 230 3.0 5.0 0.00 0.00 0.00 31 1024.1
20260905210648 83 234 10.0 12.0 0.00 0.00 0.00 32 1024.1
20260905210143 83 266 8.0 10.0 0.00 0.00 0.00 32 1024.3
20260905205642 83 308 7.0 10.0 0.00 0.00 0.00 33 1024.4
20260905205142 83 280 6.0 7.0 0.00 0.00 0.00 33 1024.0
20260905204641 83 277 5.0 7.0 0.00 0.00 0.00 33 1024.6
20260905204136 82 245 9.0 12.0 0.00 0.00 0.00 33 1024.4
20260905203631 83 236 8.0 10.0 0.00 0.00 0.00 34 1024.6
20260905203126 83 308 6.0 7.0 0.00 0.00 0.00 33 1024.8
20260905202622 83 222 4.0 9.0 0.00 0.00 0.00 33 1024.8
20260905202117 83 251 3.0 5.0 0.00 0.00 0.00 32 1025.0
20260905201613 82 244 5.0 7.0 0.00 0.00 0.00 34 1025.1
20260905201112 81 250 5.0 7.0 0.00 0.00 0.00 35 1025.3
20260905200608 83 264 6.0 7.0 0.00 0.00 0.00 34 1025.1
20260905195556 82 350 5.0 5.0 0.00 0.00 0.00 34 1024.9
20260905195051 82 246 7.0 9.0 0.00 0.00 0.00 35 1024.9
20260905194551 82 242 7.0 12.0 0.00 0.00 0.00 34 1025.0
20260905194050 82 272 6.0 7.0 0.00 0.00 0.00 36 1025.4
20260905193545 82 276 5.0 7.0 0.00 0.00 0.00 35 1025.3
20260905193041 82 247 4.0 7.0 0.00 0.00 0.00 36 1025.4
20260905192536 82 251 5.0 7.0 0.00 0.00 0.00 35 1025.4
20260905192032 82 260 11.0 14.0 0.00 0.00 0.00 36 1025.1
20260905191530 80 238 7.0 9.0 0.00 0.00 0.00 36 1025.5
20260905191030 81 239 5.0 5.0 0.00 0.00 0.00 37 1025.8
20260905190528 82 251 4.0 5.0 0.00 0.00 0.00 36 1025.5
20260905190028 80 248 3.0 3.0 0.00 0.00 0.00 38 1025.6
20260905185527 81 255 5.0 9.0 0.00 0.00 0.00 37 1025.8
20260905185026 80 243 0.0 2.0 0.00 0.00 0.00 38 1025.8
20260905184521 80 302 7.0 7.0 0.00 0.00 0.00 38 1025.9
20260905184019 80 199 1.0 2.0 0.00 0.00 0.00 38 1026.0
20260905183514 80 225 10.0 17.0 0.00 0.00 0.00 37 1026.3
20260905183009 79 275 3.0 3.0 0.00 0.00 0.00 38 1026.0
20260905182509 80 259 4.0 7.0 0.00 0.00 0.00 37 1026.1
20260905182003 79 251 2.0 3.0 0.00 0.00 0.00 39 1026.1
20260905181458 79 234 4.0 5.0 0.00 0.00 0.00 38 1026.5
20260905180957 81 261 7.0 9.0 0.00 0.00 0.00 38 1026.1
20260905180452 80 17 2.0 3.0 0.00 0.00 0.00 42 1026.4
20260905175947 79 272 7.0 12.0 0.00 0.00 0.00 39 1026.3
20260905175447 78 216 7.0 9.0 0.00 0.00 0.00 40 1026.5
20260905174943 77 243 3.0 5.0 0.00 0.00 0.00 42 1026.6
20260905174437 78 292 4.0 7.0 0.00 0.00 0.00 41 1026.3
20260905173933 78 271 5.0 7.0 0.00 0.00 0.00 42 1026.6
20260905173430 77 229 4.0 7.0 0.00 0.00 0.00 43 1026.4
20260905172925 79 260 4.0 5.0 0.00 0.00 0.00 40 1026.5
20260905172422 80 327 5.0 7.0 0.00 0.00 0.00 39 1026.4
20260905171919 78 225 3.0 5.0 0.00 0.00 0.00 41 1026.6
20260905171415 78 64 5.0 7.0 0.00 0.00 0.00 42 1026.8
20260905170911 77 249 3.0 3.0 0.00 0.00 0.00 43 1026.6
20260905170407 79 87 3.0 5.0 0.00 0.00 0.00 40 1026.3
20260905165906 77 70 3.0 5.0 0.00 0.00 0.00 42 1026.3
20260905165401 77 100 1.0 2.0 0.00 0.00 0.00 44 1026.3
20260905164856 76 259 2.0 3.0 0.00 0.00 0.00 43 1026.5
20260905164351 77 307 3.0 3.0 0.00 0.00 0.00 43 1026.4
20260905163846 77 244 4.0 5.0 0.00 0.00 0.00 43 1026.3
20260905163343 77 275 3.0 3.0 0.00 0.00 0.00 43 1026.5
20260905162838 75 234 0.0 0.0 0.00 0.00 0.00 45 1026.4
20260905162338 76 266 5.0 7.0 0.00 0.00 0.00 44 1026.6
20260905161833 76 252 5.0 7.0 0.00 0.00 0.00 43 1026.5
20260905161332 77 236 0.0 0.0 0.00 0.00 0.00 44 1026.3
20260905160830 77 273 3.0 5.0 0.00 0.00 0.00 43 1026.3
20260905160325 77 229 3.0 3.0 0.00 0.00 0.00 44 1026.5
20260905155820 77 257 0.0 2.0 0.00 0.00 0.00 45 1026.4
20260905155319 77 238 3.0 5.0 0.00 0.00 0.00 44 1026.3
20260905154813 77 235 3.0 5.0 0.00 0.00 0.00 45 1026.4
20260905154308 76 331 3.0 3.0 0.00 0.00 0.00 46 1026.3
20260905153804 75 141 1.0 2.0 0.00 0.00 0.00 47 1026.4
20260905153300 75 131 1.0 2.0 0.00 0.00 0.00 48 1026.3
20260905152754 74 270 1.0 2.0 0.00 0.00 0.00 47 1026.4
20260905152254 73 227 2.0 3.0 0.00 0.00 0.00 48 1026.4
20260905151754 73 245 3.0 5.0 0.00 0.00 0.00 49 1026.4
20260905151250 73 247 0.0 0.0 0.00 0.00 0.00 49 1026.1
20260905150744 73 239 0.0 2.0 0.00 0.00 0.00 50 1026.4
20260905150243 73 261 2.0 2.0 0.00 0.00 0.00 50 1026.4
20260905145741 72 252 1.0 2.0 0.00 0.00 0.00 50 1026.6
20260905145236 72 243 2.0 3.0 0.00 0.00 0.00 50 1026.6
20260905144735 71 287 3.0 3.0 0.00 0.00 0.00 51 1026.3
20260905144230 71 231 4.0 5.0 0.00 0.00 0.00 51 1026.5
20260905143729 71 254 5.0 5.0 0.00 0.00 0.00 52 1026.4
20260905143229 70 280 3.0 3.0 0.00 0.00 0.00 53 1026.0
20260905142727 70 274 3.0 3.0 0.00 0.00 0.00 54 1026.0
20260905142222 69 256 3.0 3.0 0.00 0.00 0.00 54 1026.0
20260905141718 69 251 2.0 2.0 0.00 0.00 0.00 56 1026.0
20260905141214 69 243 3.0 3.0 0.00 0.00 0.00 57 1026.0
20260905140709 68 262 4.0 5.0 0.00 0.00 0.00 59 1025.9
20260905140203 68 286 4.0 5.0 0.00 0.00 0.00 60 1026.0
20260905135657 67 252 5.0 7.0 0.00 0.00 0.00 64 1025.6
20260905135148 66 243 2.0 3.0 0.00 0.00 0.00 66 1025.8
20260905134647 66 249 4.0 7.0 0.00 0.00 0.00 67 1025.9
20260905134146 66 273 3.0 3.0 0.00 0.00 0.00 67 1025.8
20260905133642 65 228 3.0 3.0 0.00 0.00 0.00 69 1026.1
20260905133142 65 246 3.0 3.0 0.00 0.00 0.00 71 1026.0
20260905132641 64 266 4.0 5.0 0.00 0.00 0.00 72 1025.6
20260905132136 64 258 3.0 3.0 0.00 0.00 0.00 74 1025.9
20260905131631 63 273 3.0 5.0 0.00 0.00 0.00 75 1025.6
20260905131126 62 276 4.0 5.0 0.00 0.00 0.00 76 1025.6
20260905130621 62 244 5.0 7.0 0.00 0.00 0.00 77 1025.6
20260905130121 61 253 3.0 3.0 0.00 0.00 0.00 78 1025.5
20260905125615 60 254 7.0 9.0 0.00 0.00 0.00 80 1025.3
20260905125111 60 270 4.0 5.0 0.00 0.00 0.00 80 1025.1
20260905124607 60 236 4.0 5.0 0.00 0.00 0.00 81 1025.4
20260905124103 60 246 2.0 3.0 0.00 0.00 0.00 82 1025.4
20260905123558 59 260 2.0 3.0 0.00 0.00 0.00 83 1025.3
20260905123055 59 257 2.0 2.0 0.00 0.00 0.00 82 1025.1
20260905122555 59 252 2.0 2.0 0.00 0.00 0.00 82 1025.4
20260905122055 59 269 2.0 2.0 0.00 0.00 0.00 82 1025.3
20260905121550 60 254 2.0 3.0 0.00 0.00 0.00 81 1025.1
20260905121045 60 245 2.0 3.0 0.00 0.00 0.00 81 1025.4
20260905120544 60 261 1.0 2.0 0.00 0.00 0.00 80 1025.0
20260905120039 60 258 3.0 3.0 0.00 0.00 0.00 80 1025.0
20260905115538 60 270 3.0 5.0 0.00 0.00 0.00 79 1024.9
20260905115033 60 254 2.0 3.0 0.00 0.00 0.00 78 1025.1
20260905114532 61 258 2.0 3.0 0.00 0.00 0.00 77 1025.0
20260905114032 61 254 3.0 3.0 0.00 0.00 0.00 76 1024.6
20260905113527 62 249 3.0 3.0 0.00 0.00 0.00 75 1024.8
20260905113022 62 216 4.0 7.0 0.00 0.00 0.00 74 1024.6
20260905112517 62 245 5.0 7.0 0.00 0.00 0.00 74 1024.8
20260905112013 63 231 5.0 7.0 0.00 0.00 0.00 73 1024.6
20260905111513 63 284 4.0 5.0 0.00 0.00 0.00 73 1024.6
20260905111007 63 273 4.0 7.0 0.00 0.00 0.00 72 1024.6
20260905110506 64 264 4.0 7.0 0.00 0.00 0.00 72 1024.4
20260905110001 64 223 3.0 3.0 0.00 0.00 0.00 72 1024.4
20260905105455 63 253 3.0 3.0 0.00 0.00 0.00 72 1024.5
20260905104954 63 249 4.0 5.0 0.00 0.00 0.00 73 1024.9
20260905104451 63 253 3.0 3.0 0.00 0.00 0.00 73 1024.6
20260905103945 63 300 3.0 5.0 0.00 0.00 0.00 73 1024.5
20260905103440 63 244 3.0 3.0 0.00 0.00 0.00 73 1024.5
20260905102937 63 262 3.0 3.0 0.00 0.00 0.00 73 1024.5
20260905102432 63 286 3.0 5.0 0.00 0.00 0.00 73 1024.5
20260905101927 63 259 3.0 5.0 0.00 0.00 0.00 73 1024.4
20260905101426 63 234 3.0 3.0 0.00 0.00 0.00 73 1024.3
20260905100921 63 263 3.0 3.0 0.00 0.00 0.00 73 1024.5
20260905100416 63 253 4.0 5.0 0.00 0.00 0.00 74 1024.1
20260905095916 63 257 3.0 3.0 0.00 0.00 0.00 74 1024.6
20260905095410 63 263 4.0 5.0 0.00 0.00 0.00 74 1024.3
20260905094905 63 265 3.0 5.0 0.00 0.00 0.00 74 1024.3
20260905094400 63 236 3.0 3.0 0.00 0.00 0.00 74 1024.8
20260905093859 63 265 4.0 5.0 0.00 0.00 0.00 75 1024.3
20260905093355 63 265 5.0 7.0 0.00 0.00 0.00 74 1024.6
20260905092850 63 255 4.0 5.0 0.00 0.00 0.00 75 1024.6
20260905092345 63 265 5.0 5.0 0.00 0.00 0.00 75 1024.4
20260905091840 63 244 3.0 3.0 0.00 0.00 0.00 74 1024.5
20260905091339 63 261 5.0 7.0 0.00 0.00 0.00 74 1024.9
20260905090838 63 259 4.0 5.0 0.00 0.00 0.00 75 1024.8
20260905090335 63 252 3.0 3.0 0.00 0.00 0.00 75 1024.9
20260905085834 63 256 3.0 3.0 0.00 0.00 0.00 75 1024.6
20260905085328 63 236 3.0 3.0 0.00 0.00 0.00 74 1024.5
20260905084824 62 239 5.0 9.0 0.00 0.00 0.00 75 1024.6
20260905084323 62 207 3.0 5.0 0.00 0.00 0.00 75 1024.8
20260905083818 62 251 2.0 3.0 0.00 0.00 0.00 75 1024.9
20260905083314 62 250 2.0 3.0 0.00 0.00 0.00 75 1024.8
20260905082809 62 252 1.0 2.0 0.00 0.00 0.00 75 1024.8
20260905082307 62 252 1.0 2.0 0.00 0.00 0.00 74 1024.8
20260905081805 63 246 0.0 2.0 0.00 0.00 0.00 74 1024.8
20260905081301 63 248 1.0 2.0 0.00 0.00 0.00 73 1025.0
20260905080759 63 246 2.0 2.0 0.00 0.00 0.00 73 1025.0
20260905080254 63 247 3.0 3.0 0.00 0.00 0.00 73 1024.8
20260905075753 63 247 2.0 3.0 0.00 0.00 0.00 72 1024.9
20260905075253 63 252 2.0 2.0 0.00 0.00 0.00 72 1024.6
20260905074751 64 316 1.0 2.0 0.00 0.00 0.00 71 1024.6
20260905074247 63 245 2.0 2.0 0.00 0.00 0.00 72 1024.8
20260905073737 64 246 2.0 2.0 0.00 0.00 0.00 71 1025.1
20260905073233 64 249 2.0 2.0 0.00 0.00 0.00 71 1025.0
20260905072732 64 309 2.0 3.0 0.00 0.00 0.00 70 1024.8
20260905072227 64 255 3.0 3.0 0.00 0.00 0.00 70 1024.8
20260905071724 64 244 2.0 3.0 0.00 0.00 0.00 70 1024.9
20260905071220 65 245 2.0 2.0 0.00 0.00 0.00 69 1024.8
20260905070714 65 258 2.0 2.0 0.00 0.00 0.00 69 1025.1
20260905070211 65 240 4.0 5.0 0.00 0.00 0.00 69 1024.9
20260905065709 65 254 2.0 3.0 0.00 0.00 0.00 69 1025.1
20260905065203 65 256 2.0 2.0 0.00 0.00 0.00 69 1025.1
20260905064659 65 247 3.0 3.0 0.00 0.00 0.00 69 1025.0
20260905064154 64 260 3.0 3.0 0.00 0.00 0.00 69 1025.0
20260905063653 64 245 2.0 2.0 0.00 0.00 0.00 69 1024.8
20260905063149 65 265 1.0 2.0 0.00 0.00 0.00 67 1024.8
20260905062645 65 249 2.0 3.0 0.00 0.00 0.00 67 1024.6
20260905062144 65 281 3.0 5.0 0.00 0.00 0.00 67 1024.9
20260905061639 65 244 3.0 3.0 0.00 0.00 0.00 66 1024.9
20260905061138 65 250 5.0 5.0 0.00 0.00 0.00 66 1024.9
20260905060634 65 250 4.0 5.0 0.00 0.00 0.00 66 1024.6
20260905060130 66 241 3.0 3.0 0.00 0.00 0.00 66 1024.6
20260905055628 65 231 3.0 5.0 0.00 0.00 0.00 66 1025.1
20260905055124 65 276 3.0 3.0 0.00 0.00 0.00 66 1024.9
20260905054620 66 243 2.0 3.0 0.00 0.00 0.00 66 1024.6
20260905054115 66 280 6.0 7.0 0.00 0.00 0.00 65 1024.6
20260905053615 66 244 3.0 3.0 0.00 0.00 0.00 65 1024.9
20260905053110 66 255 3.0 3.0 0.00 0.00 0.00 65 1024.5
20260905052609 66 251 4.0 5.0 0.00 0.00 0.00 65 1024.5
20260905052104 66 260 4.0 5.0 0.00 0.00 0.00 65 1024.6
20260905051559 66 206 4.0 5.0 0.00 0.00 0.00 64 1024.6
20260905051055 66 238 3.0 3.0 0.00 0.00 0.00 64 1024.8
20260905050546 66 264 4.0 7.0 0.00 0.00 0.00 64 1024.6
20260905050043 66 251 3.0 3.0 0.00 0.00 0.00 64 1024.9
20260905045537 66 239 3.0 3.0 0.00 0.00 0.00 64 1025.0
20260905045032 65 251 4.0 5.0 0.00 0.00 0.00 64 1024.8
20260905044532 65 266 5.0 7.0 0.00 0.00 0.00 64 1025.0
20260905044027 66 250 5.0 7.0 0.00 0.00 0.00 64 1025.0
20260905043526 66 259 3.0 3.0 0.00 0.00 0.00 63 1025.3
20260905043022 67 256 5.0 7.0 0.00 0.00 0.00 63 1025.1
20260905042520 67 236 3.0 5.0 0.00 0.00 0.00 62 1025.1
20260905042016 67 253 2.0 3.0 0.00 0.00 0.00 62 1025.0
20260905041511 67 238 6.0 7.0 0.00 0.00 0.00 61 1025.0
20260905041007 66 229 2.0 3.0 0.00 0.00 0.00 61 1025.1
20260905040506 66 252 4.0 5.0 0.00 0.00 0.00 61 1025.0
20260905040005 67 242 4.0 5.0 0.00 0.00 0.00 61 1025.3
20260905035500 67 223 3.0 3.0 0.00 0.00 0.00 61 1025.5
20260905034957 66 242 3.0 3.0 0.00 0.00 0.00 61 1025.4
20260905034458 67 246 4.0 5.0 0.00 0.00 0.00 61 1025.6
20260905033956 66 220 7.0 9.0 0.00 0.00 0.00 61 1025.5
20260905033451 66 232 6.0 9.0 0.00 0.00 0.00 61 1025.6
20260905032946 66 250 5.0 7.0 0.00 0.00 0.00 61 1025.4
20260905032442 66 231 5.0 5.0 0.00 0.00 0.00 62 1025.4
20260905031936 66 226 4.0 5.0 0.00 0.00 0.00 62 1025.4
20260905031432 65 230 4.0 5.0 0.00 0.00 0.00 64 1025.5
20260905030927 0 0.0 0.0 0.00 0.00 0.00 1025.6
20260905030423 65 254 1.0 2.0 0.00 0.00 0.00 66 1025.4
20260905025921 65 254 1.0 2.0 0.00 0.00 0.00 66 1025.4
20260905025417 65 285 5.0 5.0 0.00 0.00 0.00 65 1025.5
20260905024914 0 0.0 0.0 0.00 0.00 0.00 1025.3
20260905024414 0 0.0 0.0 0.00 0.00 0.00 1025.4
20260905023910 65 242 7.0 9.0 0.00 0.00 0.00 65 1024.9
20260905023405 65 242 7.0 9.0 0.00 0.00 0.00 65 1024.9
20260905022903 65 215 4.0 5.0 0.00 0.00 0.00 67 1024.6
20260905022353 65 268 5.0 7.0 0.00 0.00 0.00 67 1024.6
20260905021848 0 0.0 0.0 0.00 0.00 0.00 1024.6
20260905021343 65 275 5.0 5.0 0.00 0.00 0.00 68 1024.4
20260905020838 65 275 5.0 5.0 0.00 0.00 0.00 68 1024.4
20260905020332 65 225 4.0 5.0 0.00 0.00 0.00 68 1024.4
20260905015832 65 234 4.0 5.0 0.00 0.00 0.00 68 1024.1
20260905015331 65 215 4.0 5.0 0.00 0.00 0.00 68 1024.5
20260905014825 65 246 3.0 3.0 0.00 0.00 0.00 68 1024.3
20260905014320 65 249 4.0 5.0 0.00 0.00 0.00 68 1024.6
20260905013816 65 234 3.0 3.0 0.00 0.00 0.00 68 1024.4
20260905013312 65 241 5.0 7.0 0.00 0.00 0.00 68 1024.9
20260905012807 65 256 5.0 7.0 0.00 0.00 0.00 68 1024.4
20260905012305 65 258 5.0 5.0 0.00 0.00 0.00 68 1024.6
20260905011759 66 207 6.0 9.0 0.00 0.00 0.00 68 1025.0
20260905011255 66 194 7.0 7.0 0.00 0.00 0.00 68 1025.0
20260905010755 66 208 7.0 10.0 0.00 0.00 0.00 67 1024.8
20260905010250 66 188 7.0 9.0 0.00 0.00 0.00 66 1024.9
20260905005747 66 264 4.0 5.0 0.00 0.00 0.00 66 1024.8
20260905005242 66 168 6.0 9.0 0.00 0.00 0.00 65 1024.5
20260905004741 66 159 6.0 7.0 0.00 0.00 0.00 65 1024.8
20260905004237 67 241 9.0 12.0 0.00 0.00 0.00 65 1024.8